Location: Newark
(27.9675°N, 86.8869°E)
Time: 23:29:50
(UTC+00:00)

Altair - Pass Details

Date: 01 November 2019
Orbit: 1502 x 1682 km, 47.2° (Epoch: 13 November)

Event Time Altitude Azimuth Distance (km) Brightness Sun altitude
Rises 09:49:48 0° 306° (NW) 4,831 10.5 19.3°
Reaches altitude 10° 09:53:00 10° 301° (WNW) 3,866 10.1 18.7°
Maximum altitude 10:02:27 51° 229° (SW) 2,017 9.2 16.9°
Drops below altitude 10° 10:12:05 10° 157° (SSE) 3,933 9.7 15.0°
Sets 10:15:23 0° 152° (SSE) 4,920 10.1 14.3°
